Temperature
21 20 20 20 26 28 28 28 28 28 27 26 26 26 26 25 25 24 21 20 20 20 19 19 19 19 19 19 19 19 19 19 19 19 19 19 19 19 18 19 18 18 18 18 18 18 18 18 18
20 20 20 24 29 28 27 28 28 27 27 26 26 26 26 24 23 22 21 20 20 20 19 19 19 19 19 19 19 19 19 19 19 19 19 19 18 18 18 18 18 18 18 18 18 18 18 18 18
20 20 23 28 29 28 27 28 28 27 26 26 26 25 24 23 22 21 20 20 20 20 19 19 19 19 19 19 19 19 19 19 19 19 19 18 18 18 18 18 18 18 18 18 18 18 18 18 18
20 22 26 29 28 28 28 28 28 28 26 26 26 25 23 21 21 21 20 20 20 20 19 19 19 19 19 19 19 19 19 19 19 19 19 18 18 18 19 18 18 18 18 18 18 18 18 18 18
22 26 29 29 28 28 29 28 28 28 27 26 26 25 23 21 21 21 20 20 20 20 19 19 19 19 19 19 19 19 19 19 19 19 19 18 18 18 18 18 18 18 18 18 18 18 18 18 18
26 29 29 28 28 28 28 28 28 28 27 26 26 25 23 21 21 21 20 20 20 20 20 19 19 19 19 19 19 19 19 19 19 19 18 18 19 18 19 19 19 18 18 18 18 18 18 18 18
27 30 29 29 28 28 28 28 28 27 27 26 25 25 23 21 21 21 20 20 20 20 20 19 19 19 19 19 19 19 19 19 19 19 19 18 18 18 18 19 19 18 18 18 18 18 18 18 18
27 30 30 29 29 28 28 27 27 27 26 24 25 25 23 21 21 21 20 20 20 20 19 19 19 19 19 19 19 19 19 19 19 19 19 18 18 18 18 18 19 19 18 18 18 18 18 18 18
26 30 29 29 29 28 28 28 26 26 25 24 24 24 22 21 21 21 21 20 20 19 19 19 19 19 19 19 18 18 19 19 18 18 18 18 18 18 18 18 19 19 19 18 18 18 18 18 18
29 30 29 29 29 29 28 28 27 27 26 25 23 22 21 21 21 21 21 21 20 20 20 19 19 19 19 18 18 18 18 18 18 18 18 18 18 18 18 18 19 19 19 18 18 18 18 18 18
30 29 29 29 28 28 28 28 27 27 27 25 24 22 22 21 21 21 21 20 20 20 19 19 19 19 19 19 18 18 18 18 18 18 18 18 18 18 18 18 18 18 18 18 18 18 18 18 18
30 29 29 29 28 28 28 28 27 27 26 25 23 22 22 22 22 21 21 20 20 19 19 19 19 19 19 18 18 18 18 18 18 18 18 18 18 18 18 18 18 18 18 18 18 17 18 17 17
30 29 28 28 27 27 27 27 27 26 25 24 23 22 22 22 22 21 20 20 19 19 19 19 18 18 18 18 18 18 18 18 18 18 18 18 18 18 18 18 18 18 18 18 18 18 17 17 17
29 29 29 28 28 27 28 27 27 25 24 24 23 23 22 22 21 21 20 20 19 19 19 19 18 18 18 18 18 18 18 18 18 18 18 18 18 18 18 18 18 18 18 18 18 17 18 17 17
29 30 30 29 29 28 28 28 27 25 25 24 24 23 22 22 21 21 20 20 20 19 19 19 19 19 18 18 18 18 18 18 18 18 18 18 18 18 18 18 18 18 18 18 18 17 17 18 18
30 30 30 29 29 29 29 28 27 25 25 25 24 23 22 22 22 21 20 20 20 19 19 19 19 19 18 19 18 18 18 18 18 18 18 18 18 18 18 18 18 18 18 18 18 17 17 18 18
31 30 30 30 30 30 30 28 27 26 26 25 24 24 23 22 22 21 21 20 19 19 19 19 19 19 18 18 18 18 18 18 18 18 18 18 18 18 18 18 18 18 18 18 18 17 17 17 17
30 30 30 30 30 30 29 29 28 26 26 26 25 24 23 23 22 21 21 20 20 19 19 19 19 19 19 18 18 18 18 18 18 18 18 18 18 18 18 18 18 18 18 18 18 17 17 17 17
31 30 30 29 30 30 29 29 28 27 27 26 25 25 24 23 22 21 21 20 20 19 19 19 19 19 19 19 19 18 18 18 18 18 18 18 18 18 18 18 18 18 18 18 18 18 17 17 18
31 30 30 29 29 29 29 29 29 28 27 26 26 25 24 24 23 22 21 21 20 20 19 19 19 19 19 19 19 18 18 18 18 18 18 18 18 18 18 18 18 18 18 18 18 18 17 18 17
30 30 30 30 29 29 29 29 29 28 27 26 26 25 25 24 24 23 22 21 21 20 20 20 19 19 19 19 19 18 18 18 18 18 18 18 18 18 18 18 18 18 18 18 18 17 17 17 17
30 31 30 30 30 30 30 29 29 29 28 27 26 26 25 24 24 23 22 22 21 20 20 20 20 20 19 19 19 18 18 19 18 18 18 18 18 18 18 18 18 18 18 18 17 17 17 17 17
31 30 30 30 30 30 30 30 30 29 28 28 27 26 25 24 24 23 23 22 21 21 20 20 20 20 20 19 19 19 18 18 18 18 18 18 18 18 18 18 18 18 18 18 17 17 17 17 17
30 30 30 30 31 29 30 30 29 29 29 29 28 26 25 24 24 23 22 22 21 21 20 20 20 20 20 19 19 19 19 18 18 18 18 18 18 18 18 18 18 18 18 17 17 17 17 17 17
31 31 30 30 30 30 30 30 29 29 29 29 28 26 25 24 23 23 22 22 21 21 20 20 20 20 20 19 19 19 19 18 18 18 18 18 18 18 18 18 18 17 17 17 17 17 17 17 17
31 31 30 29 30 30 30 29 30 29 28 28 27 26 25 24 24 23 22 22 21 21 20 20 20 20 19 19 19 19 19 18 18 18 18 18 18 18 18 18 18 18 17 17 17 17 17 17 17
31 31 32 31 30 30 30 30 29 29 28 27 27 26 25 24 24 23 23 22 21 21 20 20 20 20 19 19 19 19 19 19 18 18 18 18 18 18 18 18 17 17 17 17 17 17 17 17 17
31 32 31 31 29 29 29 29 30 28 28 28 27 26 25 24 24 23 22 22 21 21 20 20 19 20 19 19 19 19 19 19 18 18 18 18 18 18 18 17 17 17 17 17 17 17 17 17 17
30 30 30 31 30 30 29 29 30 29 28 28 27 26 25 24 23 23 22 21 21 21 20 20 19 19 19 19 19 19 19 19 18 18 18 18 18 18 18 17 17 17 17 17 17 17 17 17 16
31 31 30 30 29 30 30 29 29 29 28 27 27 25 24 24 23 22 22 21 21 20 20 20 19 19 19 19 19 19 18 18 18 18 18 18 18 17 17 17 17 17 17 17 17 17 16 16 16
Wind_Speed
11 9 5 4 4 5 10 9 8 7 7 8 8 7 8 9 8 6 5 6 6 7 9 10 8 7 7 7 7 7 7 7 8 8 7 7 7 6 6 7 8 8 9 9 9 9 9 10 10
8 5 5 4 1 8 10 9 10 9 8 6 7 8 9 10 8 6 5 6 6 7 8 9 9 7 7 8 7 7 7 7 7 7 7 7 6 6 6 6 7 8 8 9 9 9 9 10 11
6 5 4 0 7 9 10 9 9 8 7 5 6 8 7 7 6 5 6 6 6 7 8 10 9 8 7 8 7 7 7 7 7 7 6 6 6 6 6 6 7 8 8 8 9 9 9 10 10
4 4 3 4 11 11 8 8 7 7 7 7 6 8 7 6 4 6 7 6 6 7 8 10 9 8 7 7 7 7 7 6 6 6 6 6 7 6 6 6 6 7 7 8 8 9 9 9 9
4 3 3 8 11 9 8 7 5 7 6 7 7 8 8 6 6 7 7 6 6 6 8 9 9 7 7 7 7 7 6 6 6 6 6 6 7 6 6 6 6 6 7 7 8 8 8 8 9
3 2 5 9 11 9 8 6 6 8 8 7 7 8 7 6 6 7 6 6 6 6 7 8 10 8 6 6 7 7 6 6 6 5 5 6 6 6 6 6 6 6 7 6 7 7 7 7 7
2 3 7 9 9 9 7 6 7 7 8 8 5 7 7 7 7 7 7 6 6 5 6 5 6 8 8 8 7 7 6 6 5 5 5 5 5 5 6 6 5 5 6 6 6 5 6 6 6
3 1 7 8 9 9 7 6 6 7 8 6 4 6 7 6 6 7 7 6 6 5 5 4 5 5 4 7 8 6 6 5 4 4 4 3 4 5 5 5 5 5 5 5 4 4 4 5 6
2 2 8 8 7 7 6 6 6 6 8 7 7 8 9 8 7 7 7 6 6 5 4 4 4 4 3 4 6 6 6 5 4 4 4 2 2 3 4 6 5 4 5 4 4 3 4 5 7
1 6 9 7 6 6 6 5 5 5 8 8 9 10 9 8 7 6 6 6 6 4 4 4 3 3 3 3 3 2 3 4 3 3 2 2 2 2 2 6 5 4 4 4 4 3 5 5 5
4 7 7 6 6 5 6 6 5 5 6 6 8 9 8 8 6 6 6 5 5 4 4 3 3 2 2 2 2 2 2 3 3 3 2 2 1 1 1 3 5 4 4 3 5 4 2 2 2
5 6 5 5 5 4 5 5 6 6 7 7 9 10 8 7 6 5 5 5 4 4 4 3 3 3 3 2 2 2 2 2 2 2 1 2 1 1 1 1 1 1 2 1 1 1 2 2 2
5 6 5 5 5 5 6 6 6 7 8 9 10 9 8 7 6 6 5 4 4 3 3 3 3 3 3 2 1 2 2 2 3 2 1 1 1 1 1 1 1 0 1 1 1 1 2 1 2
4 5 5 6 6 5 6 6 5 7 9 10 9 8 7 6 6 5 4 3 3 2 2 3 2 3 2 2 2 2 2 2 2 2 2 1 0 1 0 1 1 0 0 1 0 1 1 1 2
4 4 6 5 4 4 5 6 6 7 8 9 8 7 6 6 5 4 3 2 2 2 2 1 2 2 2 1 1 1 1 2 2 1 1 1 1 1 1 0 0 0 0 1 1 1 1 2 2
4 3 4 5 3 3 3 7 7 7 8 8 7 7 6 4 4 3 3 2 2 1 1 1 1 2 2 1 1 1 1 1 1 1 1 1 1 1 1 1 1 1 1 1 1 1 1 1 1
3 2 4 5 3 2 1 6 7 6 7 6 6 6 5 5 3 3 2 2 2 1 1 1 0 1 0 0 0 0 0 1 1 1 1 1 1 2 2 1 1 1 1 0 0 1 0 1 1
2 3 3 3 3 2 3 6 7 6 5 6 6 5 5 4 4 3 3 2 2 2 2 1 1 0 1 0 1 0 0 0 1 1 1 2 1 1 2 1 1 2 1 0 0 0 0 1 1
1 1 2 3 2 2 3 4 6 6 5 5 5 5 5 4 4 4 3 3 3 2 2 2 1 1 1 0 1 0 0 1 1 1 1 1 2 1 2 1 1 2 1 1 1 1 1 1 1
2 1 2 3 3 1 3 3 3 5 5 4 5 5 5 5 5 4 4 3 3 3 3 3 2 2 2 1 1 1 2 1 1 1 1 1 1 2 2 1 2 1 1 1 1 1 1 1 1
2 1 0 2 3 4 3 4 4 4 4 4 4 4 5 5 5 5 5 4 4 4 3 2 2 2 2 2 1 1 1 1 1 1 1 1 2 2 2 2 2 2 2 1 2 2 2 1 1
1 0 2 3 4 2 3 1 4 4 4 4 5 5 5 5 5 5 5 4 4 3 3 3 2 2 2 2 1 2 1 2 2 2 2 1 2 2 2 2 2 3 2 1 2 2 2 2 2
0 2 2 3 3 2 2 2 3 4 3 4 5 5 5 5 5 5 4 4 3 3 3 3 2 2 2 2 2 2 2 2 2 2 2 2 2 2 2 2 2 2 2 2 2 1 2 2 2
4 4 4 6 5 2 1 3 1 1 1 3 5 5 5 5 5 4 4 3 3 3 3 3 2 2 2 2 2 2 2 2 3 3 3 2 1 1 2 2 2 3 2 2 3 3 3 2 2
6 6 4 4 3 1 1 2 2 3 2 2 4 5 6 6 5 5 4 4 3 3 3 2 3 2 1 1 2 2 3 3 3 4 2 3 2 2 2 2 2 2 2 3 3 4 3 3 3
6 7 5 4 3 1 2 2 2 4 3 3 4 5 6 6 5 5 5 5 4 3 3 3 3 2 1 1 1 1 3 3 3 3 3 3 3 2 2 2 2 3 3 4 3 3 3 3 4
5 6 6 6 6 5 2 1 3 4 4 4 4 5 5 5 5 5 5 5 4 4 4 3 3 2 1 0 1 0 1 3 3 3 3 3 3 2 2 2 2 2 3 3 3 2 3 3 4
4 4 4 6 5 5 3 4 2 4 3 4 4 4 5 5 5 5 5 5 5 4 4 3 3 2 1 1 1 0 1 1 2 3 3 3 3 3 3 2 2 2 3 3 3 3 3 3 3
5 5 5 5 6 7 4 0 3 3 3 3 4 4 4 5 5 5 5 5 4 4 4 3 2 2 1 0 0 1 1 1 2 2 2 3 3 3 2 3 3 3 3 3 3 4 4 4 4
6 7 7 6 6 6 6 0 5 3 3 3 3 4 4 4 5 5 5 5 4 3 3 3 2 2 1 0 1 1 2 2 3 3 3 3 3 3 3 3 3 3 3 3 4 4 4 4 5
Wind_Direction
178 180 203 233 224 92 71 64 62 66 62 58 52 48 52 43 37 72 77 87 95 104 108 116 109 106 107 110 110 113 117 116 118 120 119 120 117 113 111 114 118 121 125 127 129 133 140 145 146
176 187 227 240 66 84 72 65 65 62 77 82 68 62 64 62 57 82 88 93 105 104 107 107 105 104 103 105 103 106 111 113 114 113 114 117 117 114 111 114 119 120 122 126 126 128 135 142 145
186 225 262 336 59 65 73 69 73 79 76 69 73 60 57 64 65 73 85 108 107 102 106 105 105 101 99 101 99 98 105 111 112 109 110 111 112 109 107 109 116 120 124 128 125 126 130 135 141
213 227 230 78 74 65 71 74 82 90 77 61 74 79 74 52 53 84 103 110 109 110 110 105 104 99 100 101 95 92 93 100 105 106 106 105 103 101 104 109 113 117 125 128 127 126 128 132 137
240 252 114 85 76 73 71 71 68 70 72 75 77 87 80 66 81 97 108 113 107 101 100 104 105 100 100 98 96 94 91 91 95 104 106 107 106 103 101 102 108 113 120 128 130 127 130 132 137
247 236 83 79 81 79 74 72 71 73 81 82 82 88 81 91 95 98 102 100 96 99 101 107 122 114 108 103 99 97 92 88 85 91 99 103 106 105 104 104 105 111 116 124 128 129 130 137 141
317 62 77 81 86 82 69 70 65 74 79 68 67 84 96 91 93 102 98 95 92 95 98 102 115 120 129 114 98 95 91 87 83 87 93 97 100 102 105 109 106 112 115 118 124 133 133 140 151
306 81 83 78 79 78 79 80 70 72 81 75 55 76 94 102 109 106 101 95 88 86 92 97 98 99 112 117 113 111 103 97 98 97 96 104 114 117 122 124 110 111 114 118 127 136 146 154 163
266 87 73 64 65 78 88 93 85 87 95 83 67 73 100 118 119 114 106 97 88 82 82 88 84 84 94 97 114 132 130 121 139 126 118 147 116 114 134 99 109 117 116 120 125 138 153 172 173
359 67 66 58 58 80 91 88 99 110 96 93 96 97 112 121 121 110 99 94 85 74 73 80 69 73 89 94 106 114 115 117 117 97 108 114 92 85 97 125 134 133 141 152 144 157 179 199 172
50 64 71 72 69 80 97 96 98 99 82 90 111 118 121 123 117 109 100 89 80 75 67 72 77 78 75 86 101 97 98 107 119 93 98 105 103 98 117 141 151 160 174 168 158 179 167 149 126
76 69 68 75 76 80 90 97 92 76 71 93 113 121 124 122 112 105 101 93 88 74 68 59 64 71 62 56 74 91 88 95 86 89 59 91 72 40 70 97 110 152 154 138 154 151 126 125 133
79 75 79 87 94 93 100 95 92 92 99 109 118 122 121 118 111 102 97 95 94 85 75 72 62 74 82 78 46 72 70 61 81 65 75 59 74 58 85 70 69 111 140 140 132 128 112 143 154
75 86 97 105 110 114 112 105 105 105 121 123 127 126 124 119 110 109 111 108 100 81 75 78 80 94 90 92 79 70 75 78 50 63 51 6 353 34 74 118 91 84 152 73 158 129 131 155 149
130 120 118 109 121 129 137 111 99 123 133 133 133 128 126 126 121 114 113 115 103 91 73 84 104 101 93 77 81 103 82 71 56 57 43 322 318 332 301 1 22 28 132 156 209 177 157 178 165
190 174 121 110 122 153 227 96 111 140 143 140 141 141 144 140 132 123 120 118 99 90 107 93 70 101 102 70 15 48 40 48 37 24 348 333 320 294 289 307 328 335 245 174 177 201 158 164 164
185 112 93 115 117 137 176 102 125 152 154 151 156 154 154 150 155 146 143 142 128 126 132 131 84 54 38 63 216 315 66 7 346 345 334 341 321 301 289 312 339 270 259 207 238 116 178 166 178
74 78 85 95 113 135 110 109 136 158 165 165 164 165 164 163 164 160 159 147 141 143 151 148 161 132 262 225 186 241 16 327 318 307 322 316 313 296 287 272 276 270 254 231 30 146 201 221 204
12 40 73 79 108 151 120 121 140 160 175 175 177 178 180 172 160 160 166 164 160 157 167 169 185 162 205 220 274 270 344 312 296 282 320 302 305 291 268 286 256 270 256 284 257 234 192 185 203
233 219 117 120 135 171 125 124 138 164 183 191 190 186 186 178 170 168 175 178 179 175 185 189 190 196 215 191 245 286 314 308 312 323 350 312 299 281 234 238 264 275 246 229 237 218 232 262 218
226 265 61 128 155 182 182 161 143 156 179 183 190 190 188 186 180 176 177 185 190 189 194 192 196 203 225 234 225 242 242 273 307 306 303 307 308 290 282 254 262 264 258 225 232 218 222 238 212
212 257 195 188 212 168 238 163 133 161 176 193 194 188 184 178 177 177 175 181 192 193 184 182 183 199 219 226 239 259 294 316 321 309 329 326 322 308 288 264 259 260 267 245 241 207 231 227 220
212 158 202 212 237 251 227 270 116 148 186 191 187 184 178 172 173 176 176 175 185 188 185 178 171 196 216 229 215 242 266 291 307 310 323 313 310 299 290 269 261 261 260 249 251 237 241 231 230
165 176 192 216 235 256 287 275 66 119 191 166 164 169 168 163 161 164 160 158 171 176 181 171 160 179 212 230 237 246 274 295 308 306 312 307 312 304 300 262 250 252 261 244 227 227 217 235 238
211 236 237 227 224 233 146 264 34 67 95 148 154 153 156 159 162 160 161 162 162 164 163 154 146 157 190 224 259 272 280 279 283 292 298 309 321 320 308 280 254 260 256 252 233 218 229 224 220
227 257 279 292 293 260 192 241 84 88 102 115 134 143 152 157 160 162 164 162 160 156 153 149 140 140 147 186 260 286 292 288 293 298 305 310 309 313 308 281 263 261 258 253 233 224 220 216 219
224 248 283 281 277 273 239 190 141 129 133 131 135 141 153 161 162 161 159 158 158 156 155 156 147 143 136 133 191 275 310 314 318 309 292 299 303 300 300 283 269 260 259 257 245 233 230 222 224
260 257 258 271 280 271 233 225 188 151 144 137 142 150 150 156 157 155 153 155 155 155 149 149 144 143 144 126 307 75 338 325 319 309 324 319 313 313 300 296 286 274 256 235 238 236 231 229 230
204 226 253 270 281 285 274 187 80 135 146 154 148 147 151 153 155 154 155 157 155 152 147 149 160 174 172 160 325 332 319 318 308 304 307 305 306 309 302 293 285 276 263 248 240 248 235 233 234
235 241 239 253 257 272 283 265 90 114 136 137 137 138 141 146 150 152 154 156 159 159 160 168 189 201 207 239 278 296 302 305 300 301 300 297 296 294 293 286 273 264 260 253 248 251 247 241 240
Height
1506 1506 1507 1509 1503 1497 1502 1501 1498 1499 1502 1505 1506 1505 1505 1507 1509 1518 1520 1518 1518 1518 1517 1517 1517 1517 1516 1517 1517 1518 1518 1519 1519 1519 1519 1519 1519 1519 1519 1519 1519 1519 1520 1521 1522 1523 1524 1525 1527
1508 1508 1509 1507 1497 1504 1507 1501 1501 1503 1506 1508 1508 1508 1508 1512 1516 1518 1519 1519 1520 1520 1520 1519 1518 1518 1519 1519 1519 1519 1520 1520 1520 1520 1520 1521 1520 1520 1520 1520 1520 1521 1521 1523 1523 1524 1525 1526 1528
1509 1509 1510 1499 1499 1505 1508 1503 1504 1506 1508 1508 1510 1511 1513 1517 1519 1520 1521 1521 1521 1521 1521 1520 1520 1520 1520 1521 1521 1521 1522 1521 1521 1521 1522 1522 1522 1522 1522 1522 1522 1522 1523 1524 1525 1525 1526 1527 1528
1510 1511 1507 1500 1504 1504 1503 1504 1506 1507 1510 1511 1511 1514 1518 1521 1522 1522 1522 1522 1523 1523 1523 1522 1522 1522 1522 1522 1522 1523 1523 1523 1523 1523 1523 1523 1523 1523 1523 1523 1523 1524 1524 1526 1526 1527 1528 1528 1529
1511 1507 1500 1502 1505 1505 1505 1507 1507 1507 1510 1512 1513 1516 1520 1523 1523 1524 1524 1524 1525 1524 1525 1524 1523 1523 1524 1524 1524 1524 1524 1524 1524 1524 1524 1524 1524 1525 1525 1525 1525 1525 1526 1527 1528 1529 1529 1530 1531
1510 1502 1502 1507 1507 1506 1507 1509 1509 1510 1512 1514 1515 1517 1523 1525 1525 1525 1526 1526 1526 1526 1526 1526 1525 1525 1525 1525 1525 1525 1525 1525 1525 1525 1525 1525 1525 1526 1526 1526 1526 1527 1527 1528 1529 1530 1531 1531 1532
1509 1500 1503 1504 1507 1508 1510 1511 1510 1511 1514 1516 1518 1518 1523 1526 1526 1526 1527 1527 1527 1527 1528 1528 1528 1527 1527 1526 1527 1527 1527 1527 1527 1527 1527 1527 1527 1527 1527 1527 1528 1528 1529 1530 1530 1531 1531 1532 1532
1509 1501 1502 1504 1507 1510 1511 1512 1514 1514 1517 1520 1520 1520 1524 1527 1527 1528 1528 1529 1529 1529 1529 1529 1530 1530 1530 1529 1528 1528 1528 1528 1528 1528 1528 1528 1528 1528 1528 1528 1529 1529 1530 1530 1531 1531 1532 1532 1533
1509 1503 1506 1506 1507 1510 1512 1513 1516 1518 1519 1521 1523 1524 1526 1528 1528 1529 1530 1530 1530 1530 1531 1531 1531 1531 1531 1531 1530 1530 1530 1529 1529 1529 1529 1529 1530 1530 1530 1529 1529 1530 1530 1531 1531 1532 1532 1532 1533
1508 1505 1509 1508 1508 1510 1513 1514 1516 1517 1519 1522 1525 1527 1528 1529 1530 1530 1531 1532 1532 1532 1532 1532 1532 1532 1532 1532 1531 1531 1532 1531 1530 1530 1530 1530 1530 1530 1531 1530 1530 1530 1531 1532 1532 1532 1532 1533 1534
1507 1507 1509 1510 1512 1513 1513 1515 1517 1516 1518 1523 1525 1528 1529 1531 1531 1532 1532 1533 1533 1533 1533 1533 1533 1532 1532 1532 1532 1532 1532 1532 1532 1531 1531 1531 1531 1531 1531 1531 1531 1531 1532 1533 1533 1533 1534 1534 1534
1509 1511 1512 1513 1514 1514 1514 1516 1518 1519 1522 1525 1527 1529 1530 1531 1532 1533 1534 1534 1534 1534 1534 1534 1534 1533 1532 1533 1533 1533 1533 1533 1533 1532 1532 1532 1531 1531 1531 1531 1532 1532 1533 1533 1533 1534 1534 1534 1535
1510 1512 1514 1515 1516 1516 1517 1517 1520 1523 1526 1527 1529 1531 1532 1533 1533 1534 1535 1535 1535 1535 1535 1534 1534 1533 1533 1533 1533 1534 1534 1534 1534 1533 1532 1532 1532 1532 1532 1531 1531 1532 1532 1533 1533 1533 1534 1534 1535
1512 1513 1513 1515 1516 1517 1517 1519 1521 1525 1527 1529 1530 1532 1533 1534 1535 1535 1536 1536 1536 1536 1536 1535 1534 1534 1534 1534 1534 1534 1535 1534 1534 1534 1533 1532 1532 1532 1532 1532 1531 1532 1532 1532 1533 1533 1533 1534 1534
1513 1512 1512 1514 1515 1517 1517 1519 1521 1525 1528 1529 1531 1533 1534 1535 1536 1536 1537 1537 1537 1537 1536 1536 1535 1535 1534 1535 1535 1535 1536 1536 1535 1534 1533 1533 1532 1532 1532 1532 1532 1532 1532 1532 1532 1533 1533 1534 1534
1509 1508 1512 1513 1514 1515 1516 1522 1523 1526 1528 1529 1531 1534 1535 1536 1537 1537 1537 1537 1537 1537 1536 1536 1536 1536 1535 1535 1535 1536 1536 1536 1535 1535 1534 1533 1532 1532 1532 1532 1532 1532 1532 1532 1532 1533 1533 1533 1534
1506 1510 1512 1513 1513 1513 1513 1519 1523 1526 1527 1529 1531 1533 1535 1536 1537 1537 1538 1538 1538 1537 1536 1536 1536 1536 1536 1535 1535 1535 1535 1535 1535 1535 1534 1534 1533 1532 1532 1532 1532 1532 1532 1532 1532 1532 1533 1533 1533
1512 1510 1512 1513 1512 1512 1513 1516 1521 1525 1526 1527 1530 1532 1534 1535 1537 1537 1538 1538 1538 1537 1536 1536 1536 1536 1536 1536 1536 1536 1536 1536 1536 1535 1534 1534 1533 1532 1532 1532 1531 1532 1532 1531 1531 1531 1532 1532 1532
1507 1510 1514 1513 1512 1513 1514 1516 1518 1522 1524 1526 1528 1530 1532 1534 1536 1537 1537 1538 1538 1537 1536 1536 1536 1536 1535 1536 1536 1536 1536 1536 1536 1535 1534 1533 1533 1532 1531 1532 1531 1531 1531 1531 1531 1531 1531 1532 1532
1507 1511 1512 1513 1513 1513 1515 1516 1516 1519 1522 1524 1526 1528 1531 1533 1535 1536 1536 1537 1537 1537 1536 1536 1536 1536 1536 1536 1535 1536 1536 1536 1535 1535 1533 1533 1532 1532 1532 1530 1531 1530 1530 1530 1530 1530 1530 1531 1531
1508 1509 1510 1513 1513 1512 1514 1516 1516 1518 1521 1523 1525 1527 1529 1531 1533 1534 1535 1536 1536 1536 1536 1536 1535 1535 1535 1535 1536 1536 1536 1536 1535 1534 1534 1533 1532 1531 1530 1530 1529 1529 1529 1529 1529 1529 1529 1530 1530
1510 1506 1508 1511 1513 1513 1513 1521 1515 1514 1517 1520 1522 1525 1527 1529 1531 1532 1534 1535 1535 1536 1535 1535 1535 1535 1535 1535 1535 1535 1536 1535 1535 1534 1533 1532 1531 1530 1530 1529 1528 1528 1528 1528 1528 1528 1528 1528 1529
1506 1505 1506 1508 1510 1511 1511 1515 1514 1512 1516 1516 1519 1522 1525 1527 1529 1531 1532 1534 1534 1535 1535 1534 1534 1534 1534 1534 1534 1534 1535 1535 1534 1533 1532 1531 1531 1529 1528 1528 1527 1526 1527 1526 1526 1526 1526 1527 1528
1505 1506 1507 1506 1505 1520 1513 1516 1518 1510 1513 1513 1516 1520 1523 1526 1528 1529 1531 1532 1533 1534 1534 1534 1533 1533 1533 1533 1533 1533 1533 1533 1533 1532 1531 1531 1530 1529 1527 1527 1526 1525 1525 1525 1524 1524 1525 1525 1525
1505 1508 1517 1519 1518 1519 1509 1514 1515 1508 1510 1512 1515 1518 1522 1524 1526 1528 1530 1531 1532 1533 1533 1534 1533 1533 1533 1532 1532 1532 1532 1532 1531 1531 1530 1530 1529 1528 1526 1526 1525 1524 1523 1523 1522 1522 1523 1524 1523
1502 1503 1518 1527 1523 1514 1511 1515 1510 1508 1511 1513 1515 1518 1521 1523 1525 1527 1529 1530 1531 1532 1532 1532 1532 1532 1532 1532 1531 1531 1531 1531 1531 1530 1529 1529 1528 1527 1525 1524 1523 1523 1522 1522 1521 1521 1521 1522 1522
1502 1502 1497 1505 1509 1515 1511 1509 1507 1508 1511 1513 1515 1517 1520 1522 1524 1526 1527 1529 1530 1531 1531 1531 1531 1531 1531 1531 1531 1530 1530 1529 1529 1528 1527 1527 1526 1525 1524 1523 1522 1521 1521 1520 1520 1520 1520 1520 1521
1498 1497 1501 1506 1522 1524 1516 1512 1509 1509 1510 1512 1514 1517 1519 1521 1522 1524 1526 1527 1529 1530 1530 1530 1530 1530 1530 1530 1530 1530 1529 1528 1527 1527 1526 1525 1524 1523 1522 1521 1521 1520 1519 1518 1518 1519 1518 1519 1519
1503 1503 1503 1503 1505 1517 1521 1515 1501 1506 1508 1510 1513 1516 1518 1520 1521 1523 1525 1526 1528 1529 1529 1529 1529 1529 1529 1529 1529 1528 1528 1527 1526 1526 1525 1523 1522 1521 1520 1520 1519 1518 1517 1517 1517 1517 1517 1517 1517
1497 1498 1501 1510 1513 1509 1511 1514 1502 1504 1507 1510 1513 1516 1518 1519 1521 1522 1524 1526 1527 1528 1528 1528 1528 1529 1529 1528 1528 1527 1526 1526 1525 1524 1523 1522 1521 1520 1519 1517 1516 1516 1515 1515 1515 1515 1515 1514 1514